GW6995 Weather Reports


Display with metric or nautical units.
time (UTC)temp
F
wind
direction
speed
MPH
gust
MPH
rain 1hr
in
rain 24hr
in
rain mn
in
humidity
%
barometer
mb
20260504150345 68 199 1.0 7.0 0.00 0.00 0.00 34 1013.5
20260504141315 65 163 0.0 3.0 0.00 0.00 0.00 37 1013.7
20260504140812 65 159 2.0 6.0 0.00 0.00 0.00 36 1013.8
20260504140307 64 237 1.0 6.0 0.00 0.00 0.00 40 1013.8
20260504130736 61 232 1.0 3.0 0.00 0.00 0.00 39 1014.6
20260504130232 61 90 6.0 9.0 0.00 0.00 0.00 38 1014.5
20260504120156 54 136 3.0 4.0 0.00 0.00 0.00 46 1014.7
20260504110623 48 143 1.0 1.0 0.00 0.00 0.00 58 1014.6
20260504110119 47 144 0.0 1.0 0.00 0.00 0.00 60 1014.7
20260504100545 44 135 0.0 0.0 0.00 0.00 0.00 66 1014.3
20260504081939 45 136 0.0 0.0 0.00 0.00 0.00 61 1014.1
20260504081436 45 136 0.0 0.0 0.00 0.00 0.00 60 1014.3
20260504080931 46 136 0.0 0.0 0.00 0.00 0.00 59 1014.1
20260504080428 46 136 0.0 0.0 0.00 0.00 0.00 59 1014.1
20260504070356 48 126 1.0 1.0 0.00 0.00 0.00 54 1013.6
20260504050743 41 20 0.0 0.0 0.00 0.00 0.00 79 1013.4
20260504050241 41 20 0.0 0.0 0.00 0.00 0.00 78 1013.5
20260504045739 41 20 0.0 0.0 0.00 0.00 0.00 79 1013.5
20260504045238 41 20 0.0 0.0 0.00 0.00 0.00 79 1013.5
20260504044737 41 20 0.0 0.0 0.00 0.00 0.00 78 1013.4
20260504044234 41 20 0.0 0.0 0.00 0.00 0.00 80 1013.6
20260504043731 42 20 0.0 0.0 0.00 0.00 0.00 78 1013.4
20260504043228 42 20 0.0 0.0 0.00 0.00 0.00 77 1013.4
20260504042726 41 20 0.0 0.0 0.00 0.00 0.00 79 1013.3
20260504042222 41 20 0.0 0.0 0.00 0.00 0.00 77 1013.3
20260504041718 41 20 0.0 0.0 0.00 0.00 0.00 77 1013.3
20260504041214 41 20 0.0 0.0 0.00 0.00 0.00 76 1013.0
20260504040710 41 20 0.0 0.0 0.00 0.00 0.00 76 1013.1
20260504040208 42 20 0.0 0.0 0.00 0.00 0.00 77 1013.0
20260504035704 42 20 0.0 0.0 0.00 0.00 0.00 77 1013.0
20260504035202 42 20 0.0 0.0 0.00 0.00 0.00 76 1013.1
20260504034659 42 20 0.0 0.0 0.00 0.00 0.00 75 1013.2
20260504034155 42 20 0.0 0.0 0.00 0.00 0.00 73 1013.1
20260504033653 42 20 0.0 0.0 0.00 0.00 0.00 72 1013.0
20260504033150 42 20 0.0 0.0 0.00 0.00 0.00 70 1013.0
20260504032647 43 20 0.0 0.0 0.00 0.00 0.00 70 1012.9
20260504032144 43 20 0.0 0.0 0.00 0.00 0.00 69 1013.0
20260504031641 43 20 0.0 0.0 0.00 0.00 0.00 68 1013.1
20260504031137 44 20 0.0 0.0 0.00 0.00 0.00 68 1013.1
20260504030634 44 20 0.0 0.0 0.00 0.00 0.00 67 1013.2
20260504030131 44 20 0.0 0.0 0.00 0.00 0.00 66 1013.1
20260504025628 44 20 0.0 0.0 0.00 0.00 0.00 66 1012.9
20260504025125 45 20 0.0 0.0 0.00 0.00 0.00 65 1013.0
20260504024622 45 20 0.0 0.0 0.00 0.00 0.00 64 1012.9
20260504024118 45 20 0.0 0.0 0.00 0.00 0.00 63 1013.0
20260504023615 44 20 0.0 0.0 0.00 0.00 0.00 63 1013.1
20260504023111 44 20 0.0 0.0 0.00 0.00 0.00 63 1012.9
20260504022608 44 20 0.0 0.0 0.00 0.00 0.00 62 1012.9
20260504022103 45 20 0.0 0.0 0.00 0.00 0.00 62 1013.1
20260504021602 45 20 0.0 0.0 0.00 0.00 0.00 60 1013.2
20260504021058 46 20 0.0 0.0 0.00 0.00 0.00 59 1013.0
20260504020555 45 20 0.0 0.0 0.00 0.00 0.00 58 1013.1
20260504020051 45 20 0.0 0.0 0.00 0.00 0.00 59 1013.1
20260504015548 46 20 0.0 0.0 0.00 0.00 0.00 57 1013.1
20260504015044 46 20 0.0 0.0 0.00 0.00 0.00 56 1013.0
20260504014540 46 20 0.0 0.0 0.00 0.00 0.00 56 1012.9
20260504014038 46 20 0.0 0.0 0.00 0.00 0.00 57 1012.9
20260504013535 47 20 0.0 0.0 0.00 0.00 0.00 57 1013.0
20260504013032 47 20 0.0 0.0 0.00 0.00 0.00 53 1012.9
20260504012529 47 20 0.0 0.0 0.00 0.00 0.00 51 1012.8
20260504012027 48 20 0.0 0.0 0.00 0.00 0.00 50 1012.7
20260504011524 49 20 0.0 0.0 0.00 0.00 0.00 49 1012.9
20260504011020 49 20 0.0 0.0 0.00 0.00 0.00 48 1012.6
20260504010515 49 20 0.0 0.0 0.00 0.00 0.00 49 1012.5
20260504010011 50 20 0.0 0.0 0.00 0.00 0.00 46 1012.6
20260504005509 51 20 0.0 0.0 0.00 0.00 0.00 44 1012.4
20260504005006 51 20 0.0 0.0 0.00 0.00 0.00 44 1012.4
20260504004504 52 20 0.0 0.0 0.00 0.00 0.00 42 1012.1
20260504004000 53 20 0.0 0.0 0.00 0.00 0.00 39 1012.5
20260504003456 53 20 0.0 1.0 0.00 0.00 0.00 37 1012.0
20260504002954 55 5 0.0 0.0 0.00 0.00 0.00 36 1012.0
20260504002450 55 5 0.0 0.0 0.00 0.00 0.00 35 1011.9
20260504001948 55 269 0.0 1.0 0.00 0.00 0.00 34 1011.8
20260504001445 56 239 1.0 1.0 0.00 0.00 0.00 34 1011.6
20260504000942 57 266 0.0 2.0 0.00 0.00 0.00 33 1011.8
20260504000439 57 309 0.0 1.0 0.00 0.00 0.00 31 1011.7
20260503235936 58 333 0.0 1.0 0.00 0.00 0.00 30 1011.7
20260503235433 58 336 3.0 7.0 0.00 0.00 0.00 29 1011.5
20260503234931 58 351 1.0 2.0 0.00 0.00 0.00 29 1011.6
20260503234428 58 232 1.0 1.0 0.00 0.00 0.00 30 1011.4
20260503233926 58 290 1.0 1.0 0.00 0.00 0.00 29 1011.4
20260503233422 58 263 1.0 3.0 0.00 0.00 0.00 28 1011.3
20260503232919 58 347 2.0 4.0 0.00 0.00 0.00 28 1011.2
20260503232416 59 356 2.0 6.0 0.00 0.00 0.00 27 1011.2
20260503231914 59 284 2.0 3.0 0.00 0.00 0.00 28 1011.2
20260503231411 59 156 1.0 2.0 0.00 0.00 0.00 27 1011.2
20260503230907 59 284 1.0 4.0 0.00 0.00 0.00 28 1011.4
20260503230404 59 207 1.0 6.0 0.00 0.00 0.00 27 1011.0
20260503225902 60 36 2.0 7.0 0.00 0.00 0.00 27 1011.2
20260503225357 60 276 1.0 1.0 0.00 0.00 0.00 27 1011.2
20260503224853 60 300 4.0 7.0 0.00 0.00 0.00 25 1011.1
20260503224351 61 125 2.0 3.0 0.00 0.00 0.00 26 1011.0
20260503223849 61 205 2.0 3.0 0.00 0.00 0.00 27 1010.9
20260503223346 61 293 4.0 4.0 0.00 0.00 0.00 25 1011.0
20260503222841 61 248 0.0 8.0 0.00 0.00 0.00 26 1011.1
20260503222340 61 274 2.0 2.0 0.00 0.00 0.00 26 1011.2
20260503221838 61 216 4.0 8.0 0.00 0.00 0.00 24 1011.1
20260503221337 62 326 5.0 7.0 0.00 0.00 0.00 24 1010.9
20260503220832 62 291 4.0 7.0 0.00 0.00 0.00 25 1011.0
20260503220329 62 300 3.0 10.0 0.00 0.00 0.00 25 1010.9
20260503215826 62 335 3.0 8.0 0.00 0.00 0.00 24 1011.0
20260503215323 62 230 2.0 6.0 0.00 0.00 0.00 24 1011.1
20260503214821 63 255 2.0 6.0 0.00 0.00 0.00 23 1011.1
20260503214318 62 63 1.0 3.0 0.00 0.00 0.00 24 1011.2
20260503213815 61 314 1.0 6.0 0.00 0.00 0.00 23 1010.9
20260503213313 62 208 1.0 6.0 0.00 0.00 0.00 24 1011.2
20260503212810 61 280 2.0 3.0 0.00 0.00 0.00 26 1011.2
20260503212308 61 63 2.0 7.0 0.00 0.00 0.00 26 1011.1
20260503211805 62 261 2.0 9.0 0.00 0.00 0.00 26 1011.2
20260503211301 62 35 8.0 11.0 0.00 0.00 0.00 23 1010.8
20260503210801 62 45 2.0 10.0 0.00 0.00 0.00 26 1010.9
20260503210259 62 282 0.0 4.0 0.00 0.00 0.00 28 1010.9
20260503205754 62 336 7.0 8.0 0.00 0.00 0.00 24 1010.9
20260503205251 62 177 3.0 6.0 0.00 0.00 0.00 30 1010.8
20260503204747 62 30 3.0 14.0 0.00 0.00 0.00 25 1010.8
20260503204245 63 327 4.0 9.0 0.00 0.00 0.00 23 1011.0
20260503203742 62 39 3.0 4.0 0.00 0.00 0.00 27 1010.7
20260503203239 61 27 4.0 7.0 0.00 0.00 0.00 26 1011.0
20260503202736 61 0 2.0 3.0 0.00 0.00 0.00 28 1011.0
20260503202234 61 329 2.0 10.0 0.00 0.00 0.00 27 1011.1
20260503201732 62 357 1.0 7.0 0.00 0.00 0.00 26 1011.1
20260503201229 62 42 1.0 4.0 0.00 0.00 0.00 31 1011.0
20260503200726 62 358 6.0 9.0 0.00 0.00 0.00 27 1011.0
20260503200222 60 281 3.0 3.0 0.00 0.00 0.00 28 1011.1
20260503195719 62 319 4.0 7.0 0.00 0.00 0.00 28 1011.3
20260503195216 61 80 5.0 9.0 0.00 0.00 0.00 27 1011.2
20260503194713 61 196 3.0 7.0 0.00 0.00 0.00 25 1011.4
20260503194209 60 275 4.0 4.0 0.00 0.00 0.00 29 1011.3
20260503193705 60 34 2.0 7.0 0.00 0.00 0.00 28 1011.2
20260503193201 59 316 9.0 13.0 0.00 0.00 0.00 27 1011.4
20260503192657 61 347 2.0 14.0 0.00 0.00 0.00 29 1011.3
20260503192152 60 21 3.0 4.0 0.00 0.00 0.00 28 1011.6
20260503191649 61 314 2.0 6.0 0.00 0.00 0.00 29 1011.5
20260503191147 61 312 3.0 7.0 0.00 0.00 0.00 28 1011.6
20260503190643 61 89 2.0 8.0 0.00 0.00 0.00 30 1011.6
20260503190140 59 297 2.0 2.0 0.00 0.00 0.00 30 1011.8
20260503185637 60 93 4.0 7.0 0.00 0.00 0.00 29 1011.5
20260503185132 59 311 1.0 6.0 0.00 0.00 0.00 27 1011.8
20260503184627 58 9 1.0 8.0 0.00 0.00 0.00 31 1011.6
20260503184124 59 317 3.0 6.0 0.00 0.00 0.00 32 1011.7
20260503183621 60 267 4.0 11.0 0.00 0.00 0.00 29 1011.9
20260503183118 59 14 3.0 7.0 0.00 0.00 0.00 29 1012.0
20260503182616 58 53 1.0 6.0 0.00 0.00 0.00 32 1011.8
20260503182114 59 189 2.0 8.0 0.00 0.00 0.00 30 1011.9
20260503181611 58 321 3.0 8.0 0.00 0.00 0.00 34 1011.9
20260503181108 58 302 4.0 8.0 0.00 0.00 0.00 31 1012.1
20260503180605 59 328 5.0 10.0 0.00 0.00 0.00 29 1012.0
20260503175559 56 66 2.0 6.0 0.00 0.00 0.00 34 1012.3
20260503175056 55 124 2.0 4.0 0.00 0.00 0.00 37 1012.0
20260503174553 55 131 2.0 6.0 0.00 0.00 0.00 33 1012.3
20260503174049 57 298 3.0 8.0 0.00 0.00 0.00 34 1012.4
20260503173544 56 319 2.0 4.0 0.00 0.00 0.00 39 1012.2
20260503173041 55 101 1.0 4.0 0.00 0.00 0.00 37 1012.5
20260503172539 55 71 4.0 11.0 0.00 0.00 0.00 34 1012.0
20260503172036 56 295 2.0 6.0 0.00 0.00 0.00 34 1012.1
20260503171532 56 328 2.0 7.0 0.00 0.00 0.00 38 1012.3
20260503171030 56 336 3.0 4.0 0.00 0.00 0.00 35 1012.4
20260503170526 56 85 2.0 7.0 0.00 0.00 0.00 34 1012.2
20260503150918 52 282 2.0 3.0 0.00 0.00 0.00 33 1012.7